Wetterdaten: aktuell Dienstag, 19.10.2021 17:46
Datum Zeit Temp. A. Feuchte A. Luftdruck Regen Wind Richtung Richtung Sonnenschein Regendauer Taupunkt Windchill
19.10.2021 17:46 12,1 C 74 % 1023,6 hPa 0,0 mm 0,0 km/h (0 Bft) NW 305 0 min 0 min 7,6 C 12,1 C
19.10.2021 17:41 12,2 C 75 % 1023,6 hPa 0,0 mm 0,0 km/h (0 Bft) NW 305 0 min 0 min 7,9 C 12,2 C
19.10.2021 17:36 12,3 C 74 % 1023,6 hPa 0,0 mm 0,0 km/h (0 Bft) S-SO 165 0 min 0 min 7,8 C 12,3 C
19.10.2021 17:31 12,5 C 73 % 1023,5 hPa 0,0 mm 0,0 km/h (0 Bft) S-SW 210 0 min 0 min 7,8 C 12,5 C
19.10.2021 17:26 12,5 C 73 % 1023,5 hPa 0,0 mm 0,0 km/h (0 Bft) W 275 0 min 0 min 7,8 C 12,5 C
19.10.2021 17:21 12,6 C 73 % 1023,5 hPa 0,0 mm 0,0 km/h (0 Bft) S 170 0 min 0 min 7,9 C 12,6 C
19.10.2021 17:16 12,6 C 71 % 1023,5 hPa 0,0 mm 0,0 km/h (0 Bft) W-SW 245 0 min 0 min 7,5 C 12,6 C
19.10.2021 17:11 12,6 C 71 % 1023,5 hPa 0,0 mm 2,7 km/h (1 Bft) O 100 0 min 0 min 7,5 C 12,6 C
19.10.2021 17:06 12,7 C 72 % 1023,5 hPa 0,0 mm 7,3 km/h (2 Bft) SO 130 0 min 0 min 7,8 C 12,7 C
19.10.2021 17:01 12,8 C 73 % 1024,5 hPa 0,0 mm 0,9 km/h (0 Bft) O 90 0 min 0 min 8,1 C 12,8 C
19.10.2021 16:56 13,0 C 73 % 1024,5 hPa 0,0 mm 0,0 km/h (0 Bft) S-SO 165 0 min 0 min 8,3 C 13,0 C
19.10.2021 16:51 13,1 C 74 % 1024,5 hPa 0,0 mm 0,0 km/h (0 Bft) SO 135 0 min 0 min 8,6 C 13,1 C
19.10.2021 16:46 13,1 C 73 % 1024,5 hPa 0,0 mm 0,0 km/h (0 Bft) W-NW 290 0 min 0 min 8,4 C 13,1 C
19.10.2021 16:41 13,0 C 73 % 1024,5 hPa 0,0 mm 4,2 km/h (1 Bft) NO 45 0 min 0 min 8,3 C 13,0 C
19.10.2021 16:36 13,0 C 72 % 1024,5 hPa 0,0 mm 4,8 km/h (1 Bft) S-SO 160 0 min 0 min 8,1 C 13,0 C
19.10.2021 16:31 13,2 C 72 % 1024,5 hPa 0,0 mm 1,8 km/h (1 Bft) W 280 0 min 0 min 8,3 C 13,2 C
19.10.2021 16:26 13,2 C 72 % 1024,5 hPa 0,0 mm 1,2 km/h (1 Bft) SW 225 0 min 0 min 8,3 C 13,2 C
19.10.2021 16:21 13,4 C 71 % 1024,4 hPa 0,0 mm 2,4 km/h (1 Bft) W-NW 290 0 min 0 min 8,3 C 13,4 C
19.10.2021 16:16 13,4 C 71 % 1024,4 hPa 0,0 mm 3,3 km/h (1 Bft) S 180 0 min 0 min 8,3 C 13,4 C
19.10.2021 16:11 13,6 C 69 % 1024,4 hPa 0,0 mm 3,0 km/h (1 Bft) S 190 0 min 0 min 8,0 C 13,6 C
19.10.2021 16:06 13,8 C 69 % 1024,3 hPa 0,0 mm 1,5 km/h (1 Bft) W-SW 240 0 min 0 min 8,2 C 13,8 C
19.10.2021 16:01 13,8 C 69 % 1024,3 hPa 0,0 mm 0,9 km/h (0 Bft) S 170 0 min 0 min 8,2 C 13,8 C
19.10.2021 15:56 13,8 C 70 % 1024,3 hPa 0,0 mm 0,0 km/h (0 Bft) O-SO 120 0 min 0 min 8,4 C 13,8 C
19.10.2021 15:51 13,7 C 71 % 1024,4 hPa 0,0 mm 1,5 km/h (1 Bft) SO 140 0 min 0 min 8,5 C 13,7 C
19.10.2021 15:46 13,3 C 71 % 1024,4 hPa 0,0 mm 2,1 km/h (1 Bft) S-SO 165 0 min 0 min 8,2 C 13,3 C
19.10.2021 15:41 13,3 C 72 % 1024,4 hPa 0,0 mm 0,0 km/h (0 Bft) S-SO 150 0 min 0 min 8,4 C 13,3 C
19.10.2021 15:36 13,1 C 72 % 1024,5 hPa 0,0 mm 0,9 km/h (0 Bft) N-NO 20 0 min 0 min 8,2 C 13,1 C
19.10.2021 15:31 13,1 C 71 % 1024,5 hPa 0,0 mm 3,9 km/h (1 Bft) O-SO 120 0 min 0 min 8,0 C 13,1 C
19.10.2021 15:26 13,1 C 71 % 1024,5 hPa 0,0 mm 4,5 km/h (1 Bft) S-SO 155 0 min 0 min 8,0 C 13,1 C
19.10.2021 15:21 13,0 C 73 % 1024,5 hPa 0,0 mm 4,2 km/h (1 Bft) SO 130 0 min 0 min 8,3 C 13,0 C
19.10.2021 15:16 13,0 C 72 % 1023,4 hPa 0,0 mm 6,4 km/h (2 Bft) S 170 0 min 0 min 8,1 C 13,0 C
19.10.2021 15:11 13,0 C 72 % 1023,4 hPa 0,0 mm 5,4 km/h (2 Bft) SW 220 0 min 0 min 8,1 C 13,0 C
19.10.2021 15:06 13,1 C 73 % 1023,4 hPa 0,0 mm 2,1 km/h (1 Bft) N-NW 335 0 min 0 min 8,4 C 13,1 C
19.10.2021 15:01 13,0 C 72 % 1024,5 hPa 0,0 mm 4,5 km/h (1 Bft) SW 230 0 min 0 min 8,1 C 13,0 C
19.10.2021 14:56 13,0 C 71 % 1024,5 hPa 0,0 mm 3,6 km/h (1 Bft) SW 215 0 min 0 min 7,9 C 13,0 C
19.10.2021 14:51 13,0 C 72 % 1024,5 hPa 0,0 mm 4,5 km/h (1 Bft) S 190 0 min 0 min 8,1 C 13,0 C
19.10.2021 14:46 13,0 C 72 % 1024,5 hPa 0,0 mm 3,9 km/h (1 Bft) S 185 0 min 0 min 8,1 C 13,0 C
19.10.2021 14:41 13,3 C 72 % 1024,4 hPa 0,0 mm 2,7 km/h (1 Bft) O 100 0 min 0 min 8,4 C 13,3 C
19.10.2021 14:36 13,3 C 72 % 1024,4 hPa 0,0 mm 0,0 km/h (0 Bft) S-SO 160 0 min 0 min 8,4 C 13,3 C
19.10.2021 14:31 13,0 C 72 % 1025,5 hPa 0,0 mm 4,8 km/h (1 Bft) S 175 0 min 0 min 8,1 C 13,0 C
19.10.2021 14:26 13,1 C 71 % 1025,5 hPa 0,0 mm 3,3 km/h (1 Bft) SO 140 0 min 0 min 8,0 C 13,1 C
19.10.2021 14:21 13,3 C 71 % 1025,5 hPa 0,0 mm 7,3 km/h (2 Bft) S 175 0 min 0 min 8,2 C 13,3 C
19.10.2021 14:16 13,3 C 71 % 1024,4 hPa 0,0 mm 4,8 km/h (1 Bft) S-SO 165 0 min 0 min 8,2 C 13,3 C
19.10.2021 14:11 13,7 C 71 % 1024,4 hPa 0,0 mm 1,8 km/h (1 Bft) O-SO 105 0 min 0 min 8,5 C 13,7 C
19.10.2021 14:06 13,3 C 71 % 1024,4 hPa 0,0 mm 3,6 km/h (1 Bft) S-SO 165 0 min 0 min 8,2 C 13,3 C
19.10.2021 14:01 13,4 C 72 % 1025,5 hPa 0,0 mm 6,4 km/h (2 Bft) SO 145 0 min 0 min 8,5 C 13,4 C
19.10.2021 13:56 13,4 C 71 % 1025,5 hPa 0,0 mm 3,3 km/h (1 Bft) SO 130 0 min 0 min 8,3 C 13,4 C
19.10.2021 13:51 13,5 C 71 % 1025,5 hPa 0,0 mm 2,4 km/h (1 Bft) O-SO 120 0 min 0 min 8,3 C 13,5 C
19.10.2021 13:46 13,1 C 70 % 1024,5 hPa 0,0 mm 4,8 km/h (1 Bft) SO 145 0 min 0 min 7,8 C 13,1 C
_ Min-Zeit 05:31 13:01 15:06 - 18:01 - - - - 05:31 07:46
Minimum _ 3,9 C 69 % 1023,4 hPa - 0,0 km/h (0 Bft) - - - - 1,4 C 3,2 C
_ Max-Zeit 15:56 06:16 23:11 18:01 13:31 - - 13:26 18:01 16:51 15:56
Maximum _ 13,8 C 85 % 1028,1 hPa 0,0 mm 7,9 km/h
S-SO (2 Bft)
- - 6 min 0 min 8,6 C 13,8 C
Durchschnitt _ 8,0 C 79 % 1026,1 hPa #0,0 mm 0,9 km/h (0 Bft) NW - #1:09 h #0 min. 4,5 C 8,0 C